This is the latest recevied weather packets stored in our database for station/object N5KJT. If no packets are shown the sender has not sent any weather packets the latest 10 day(s).
| Time | Temp. | Humidity | Pressure | Rain* | Wind** | Luminosity | Snow |
|---|---|---|---|---|---|---|---|
| 1788172216 | 17.78° C | 61% | 1024.3 hPa | 0 mm | - | 0 W/m² | - |
| 1788171916 | 17.78° C | 62% | 1024.3 hPa | 0 mm | - | 0 W/m² | - |
| 1788171616 | 17.78° C | 63% | 1024.4 hPa | 0 mm | - | 0 W/m² | - |
| 1788171316 | 17.22° C | 64% | 1024.3 hPa | 0 mm | - | 0 W/m² | - |
| 1788171016 | 17.22° C | 65% | 1024.3 hPa | 0 mm | - | 0 W/m² | - |
| 1788170716 | 17.22° C | 67% | 1024.2 hPa | 0 mm | - | 0 W/m² | - |
| 1788170416 | 17.22° C | 68% | 1024.1 hPa | 0 mm | - | 0 W/m² | - |
| 1788170116 | 17.22° C | 67% | 1024 hPa | 0 mm | - | 0 W/m² | - |
| 1788169816 | 17.78° C | 66% | 1024 hPa | 0 mm | - | 0 W/m² | - |
| 1788169516 | 17.78° C | 65% | 1024 hPa | 0 mm | - | 0 W/m² | - |
| 1788169216 | 17.78° C | 65% | 1023.9 hPa | 0 mm | - | 0 W/m² | - |
| 1788168916 | 17.78° C | 64% | 1023.9 hPa | 0 mm | - | 0 W/m² | - |
| 1788168616 | 17.78° C | 65% | 1023.8 hPa | 0 mm | - | 0 W/m² | - |
| 1788168316 | 17.78° C | 67% | 1023.9 hPa | 0 mm | - | 0 W/m² | - |
| 1788168016 | 18.33° C | 69% | 1023.8 hPa | 0 mm | - | 0 W/m² | - |
| 1788167716 | 18.33° C | 66% | 1023.8 hPa | 0 mm | - | 0 W/m² | - |
| 1788167416 | 18.33° C | 64% | 1023.9 hPa | 0 mm | - | 0 W/m² | - |
| 1788167116 | 18.33° C | 65% | 1024 hPa | 0 mm | - | 0 W/m² | - |
| 1788166816 | 18.33° C | 63% | 1024 hPa | 0 mm | - | 0 W/m² | - |
| 1788166516 | 18.33° C | 63% | 1024 hPa | 0 mm | - | 0 W/m² | - |
| 1788166216 | 18.89° C | 64% | 1024 hPa | 0 mm | - | 0 W/m² | - |
| 1788165916 | 18.89° C | 63% | 1024 hPa | 0 mm | - | 0 W/m² | - |
| 1788165616 | 18.89° C | 64% | 1023.8 hPa | 0 mm | - | 0 W/m² | - |
| 1788165316 | 18.89° C | 60% | 1023.7 hPa | 0 mm | - | 0 W/m² | - |
| 1788165016 | 19.44° C | 57% | 1023.8 hPa | 0 mm | - | 0 W/m² | - |
* Rain latest hour (hover to see other rain measurements)
** Current wind speed in m/s (hover to see current wind gust speed)